Location: Bennemühlen
(52.5740°N, 9.7135°E)
Time: 09:15:43
(UTC+00:00)

A-11 Canister half - Visible Passes

Search period start: 17 February 2026 00:00
Search period end: 27 February 2026 00:00
Orbit: 1525 x 1682 km, 47.3° (Epoch: 16 February)

Date Brightness Start Highest point End Pass type
(mag) Time Alt. Az. Time Alt. Az. Time Alt. Az.
17 Feb 9.2 17:29:04 10° WSW 17:38:09 59° SSE 17:46:25 13° E visible
17 Feb 9.0 19:33:21 10° W 19:42:27 62° S 19:44:42 50° SE visible
17 Feb 10.1 21:38:03 10° W 21:43:00 30° WSW 21:43:00 30° WSW visible
18 Feb 9.3 17:07:17 10° WSW 17:16:21 58° SSE 17:25:22 10° E visible
18 Feb 9.1 19:11:32 10° W 19:20:39 63° S 19:24:07 41° SE visible
18 Feb 9.8 21:16:13 10° W 21:22:24 35° WSW 21:22:24 35° WSW visible
19 Feb 9.1 18:49:43 10° W 18:58:50 63° S 19:03:32 32° ESE visible
19 Feb 9.6 20:54:23 10° W 21:01:49 40° SW 21:01:49 40° SW visible
20 Feb 9.1 18:27:54 10° W 18:37:02 63° S 18:42:58 25° ESE visible
20 Feb 9.5 20:32:33 10° W 20:41:04 42° SSW 20:41:15 42° SSW visible
20 Feb 11.0 22:38:48 10° W 22:39:33 12° W 22:39:33 12° W visible
21 Feb 9.2 18:06:05 10° W 18:15:14 64° S 18:22:26 18° ESE visible
21 Feb 9.4 20:10:43 10° W 20:19:17 44° SSW 20:20:43 41° S visible
21 Feb 10.8 22:16:46 10° W 22:19:00 14° WSW 22:19:00 14° WSW visible
22 Feb 9.2 17:44:15 10° W 17:53:26 64° S 18:01:55 13° ESE visible
22 Feb 9.5 19:48:53 10° W 19:57:31 45° SSW 20:00:12 37° S visible
22 Feb 10.6 21:54:48 10° W 21:58:30 17° WSW 21:58:30 17° WSW visible
23 Feb 9.3 17:22:26 10° W 17:31:37 64° S 17:40:46 10° ESE visible
23 Feb 9.5 19:27:03 10° W 19:35:44 46° SSW 19:39:43 31° SSE visible
23 Feb 10.5 21:32:48 10° W 21:38:01 19° SW 21:38:01 19° SW visible
24 Feb 9.5 19:05:13 10° W 19:13:57 47° SSW 19:19:17 24° SSE visible
24 Feb 10.4 21:10:51 10° W 21:17:09 21° SW 21:17:35 21° SW visible
25 Feb 9.5 18:43:24 10° W 18:52:10 49° SSW 18:58:53 18° SE visible
25 Feb 10.4 20:48:55 10° W 20:55:24 22° SW 20:57:11 21° SSW visible
26 Feb 9.6 18:21:33 10° W 18:30:23 50° SSW 18:38:33 12° SE visible
26 Feb 10.4 20:26:59 10° W 20:33:41 23° SW 20:36:51 19° SSW visible
